Location: *
(41.3092°S, 157.5636°W)
Time: 23:57:09
(UTC+00:00)

Daily predictions for brighter satellites

Satellite Brightness Start Highest point End
(mag) Time Altitude Azimuth Time Altitude Azimuth Time Altitude Azimuth
ATLAS CENTAUR R/B 4.5 14:01:47 32° E 14:01:47 32° E 14:07:13 10° ENE
Cosmos 2082 Rocket 3.2 14:33:21 44° E 14:33:21 44° E 14:37:56 10° NE
Cosmos 2278 Rocket 4.1 14:50:34 20° S 14:50:34 20° S 14:52:14 10° SSE
Cosmos 1943 Rocket 3.3 14:43:51 21° NNE 14:47:08 40° ENE 14:52:20 10° SE
Cosmos 2218 Rocket 4.1 14:47:16 10° N 14:53:40 76° E 15:00:09 10° S
Cosmos 967 Rocket 4.5 14:55:37 73° NNE 14:55:37 73° NNE 15:01:19 10° NNE
COSMOS 2406 4.0 14:59:19 40° N 14:59:19 40° N 15:02:55 10° NNE
NOSS 3-1 (A) 4.2 14:57:28 26° NNW 15:03:11 82° ENE 15:11:14 10° SE
CZ-4C R/B 2.9 15:02:43 43° NW 15:05:49 88° SW 15:13:07 10° SE
ATLAS 3B R/B 4.2 15:08:45 22° SSW 15:08:45 22° SSW 15:12:32 10° SSE
Cosmos 1727 Rocket 4.5 15:06:03 10° S 15:12:13 59° E 15:18:21 10° NNE
Cosmos 1340 Rocket 3.7 15:13:05 49° ENE 15:13:05 49° ENE 15:16:36 10° NNE
NOSS 3-1 (C) 4.1 15:10:52 53° W 15:12:36 62° SW 15:20:26 10° SSE
Cosmos 1959 Rocket 4.3 15:09:52 10° NNW 15:15:59 76° W 15:22:12 10° S
USA 267 3.1 15:12:09 10° SE 15:18:48 80° SW 15:20:50 48° WNW
ADEOS 3.9 15:16:25 10° NNE 15:21:36 66° ESE 15:26:03 15° S
USA 281 3.1 15:17:24 10° NNE 15:23:59 69° WNW 15:26:34 39° SW
Cosmos 864 Rocket 4.4 15:19:26 10° NNW 15:25:32 64° W 15:31:46 10° S
H-2A R/B 3.3 15:20:42 10° NE 15:25:43 42° ESE 15:30:41 10° S
SL-4 R/B 3.9 15:29:51 17° SSE 15:29:51 17° SSE 15:31:02 10° SE
SL-08 R/B 3.5 15:23:25 10° SSE 15:28:15 70° ENE 15:32:55 10° N
CZ-4C R/B 3.7 15:24:47 10° SSE 15:28:22 54° E 15:31:48 10° N
Cosmos 2151 4.3 15:28:45 10° S 15:32:50 39° ESE 15:36:49 10° NNE
USA 276 3.6 15:47:19 27° SSE 15:47:19 27° SSE 15:49:43 10° E
ISS -3.8 15:48:33 83° NNE 15:48:36 83° NE 15:52:03 10° SE
SMAP 3.3 15:44:54 10° NNE 15:49:33 71° ESE 15:54:17 10° S
CZ-2D R/B 4.1 15:46:57 10° NNE 15:50:39 51° ESE 15:54:25 10° S
USA 234 3.6 15:44:29 10° ENE 15:50:55 60° SE 15:55:35 20° SW
Cosmos 1076 Rocket 3.4 15:49:04 15° S 15:52:42 89° WSW 15:56:59 10° N
Cosmos 2366 rocket 4.4 15:47:52 10° NW 15:53:41 38° WSW 15:59:38 10° S
Cosmos 2251 Rocket 3.5 15:49:27 10° NNW 15:54:50 83° WSW 16:00:19 10° SSE
CZ-2C R/B 2.9 15:50:05 10° SSE 15:55:29 70° ENE 16:00:41 10° N
Cosmos-2242 4.2 15:52:16 10° NNE 15:56:22 45° E 16:00:30 10° SSE
X-37B 0.4 16:01:00 65° S 16:01:04 65° SSE 16:04:00 10° E
Tiangong 3.1 16:01:39 18° NNW 16:01:39 18° NNW 16:03:39 10° NNE
Cosmos 1992 Rocket 4.5 16:01:36 32° WSW 16:03:00 38° WNW 16:07:48 10° NNW
CORIOLIS 4.2 15:57:56 10° NNE 16:03:20 85° ESE 16:08:48 10° SSW
Cosmos 1934 Rocket 4.4 15:59:14 10° N 16:05:13 65° E 16:11:20 10° SSE
NOAA 6 4.1 16:01:42 10° NNE 16:06:54 81° ESE 16:12:09 10° SSW
Cosmos 2123 Rocket 4.4 16:02:54 10° S 16:09:14 65° E 16:15:25 10° NNE
SOZ 4.0 16:09:04 48° SSW 16:09:27 58° SSE 16:11:35 10° ENE
Cosmos 1939 Rocket 3.6 16:08:35 10° NNW 16:12:14 31° W 16:12:42 30° W
ATLAS 5 CENTAUR R/B 2.7 16:08:26 11° SSW 16:13:37 48° SE 16:18:07 10° ENE
Cosmos 1869 3.4 16:12:25 10° NNW 16:16:08 46° W 16:19:56 10° S
Cosmos 2082 Rocket 3.2 16:15:17 23° W 16:16:12 24° WNW 16:20:39 10° NNW
BREEZE-M DEB (TANK) 3.6 16:09:06 14° WNW 16:16:28 56° SSW 16:19:28 10° SE
Spot 1 4.4 16:11:53 10° SSE 16:16:37 81° ENE 16:21:32 10° NNW
Cosmos 2297 3.9 16:11:08 10° NW 16:16:39 49° WSW 16:22:11 10° SSE
Radarsat Rocket 3.9 16:14:13 10° NNE 16:20:05 88° ESE 16:26:08 10° SSW
CZ-4B R/B 3.1 16:18:43 10° N 16:22:23 42° W 16:25:06 16° SSW
AQUARIUS 4.2 16:18:44 10° N 16:23:12 61° W 16:27:44 10° SSW
ATLAS CENTAUR R/B 4.2 16:21:49 19° W 16:25:08 28° NW 16:34:34 10° N
USA 229 DEB 4.2 16:18:36 10° WNW 16:26:06 47° SW 16:33:11 10° SSE
USA 229 4.2 16:18:40 10° WNW 16:26:09 47° SW 16:33:15 10° SSE
COSMO-SKYMED 1 3.3 16:22:25 10° SSE 16:26:48 58° E 16:31:06 10° N
Okean O Rocket 3.7 16:25:05 10° NE 16:28:55 28° ESE 16:32:48 10° S
Cosmos 1943 Rocket 2.9 16:26:04 10° WNW 16:30:57 30° SW 16:35:51 10° S
Cosmos 2278 Rocket 4.2 16:32:27 10° SW 16:32:27 10° SW 16:32:31 10° SW
Cosmos 1862 3.3 16:37:11 10° S 16:41:18 88° W 16:45:22 10° N
SL-08 RB Rocket 3.8 16:41:06 10° NNE 16:45:46 89° E 16:50:29 10° SSW
Cosmos 2369 Rocket 2.3 16:41:04 10° NW 16:46:37 56° WSW 16:52:16 10° SSE
Cosmos 2221 4.1 16:45:54 10° NNE 16:49:56 41° E 16:54:05 10° SSE
SJ-11-01 4.3 16:46:02 10° N 16:50:47 65° W 16:55:36 10° SSW
Cosmos 407 Rocket 3.8 16:47:46 10° NW 16:52:43 45° WSW 16:57:41 10° S
BREEZE-M DEB (TANK) 3.5 16:51:43 11° SW 16:54:15 55° SSE 17:00:23 10° ENE
CZ-4C R/B 3.8 16:48:47 10° W 16:55:14 26° SW 17:00:53 10° SSE
Cosmos 1606 2.8 16:54:12 10° NNW 16:57:57 56° W 17:01:49 10° S
USA 267 4.1 16:55:29 10° SE 17:01:12 32° SSW 17:06:55 10° W
CZ-4 R/B 4.4 16:59:15 10° N 17:03:24 75° WNW 17:07:38 10° SSW
Cosmos 1833 4.4 16:59:05 10° SSW 17:04:59 83° ESE 17:10:48 10° NNE
H-2A R/B 3.2 17:00:52 10° NNW 17:05:14 25° W 17:09:35 10° SW
ARGOS 3.6 17:02:40 10° N 17:07:51 44° W 17:13:06 10° SSW
MOS 1-B 4.4 17:02:19 10° N 17:08:07 74° WNW 17:13:59 10° SSW
SL-4 R/B 3.7 17:06:05 10° SW 17:08:22 16° S 17:10:43 10° SE
Cosmos 1656 Rocket 4.0 17:05:08 10° NW 17:10:27 45° WSW 17:15:54 10° SSE
Cosmos 1140 Rocket 4.2 17:06:05 10° WNW 17:10:39 30° WSW 17:15:15 10° S
